Hourly Weather Kladziewo

Today, 29 July, Thursday

Time Temperature Precipitation Wind Pressure Humidity
00:00 +21°C° 1.2 mm 3 mps 742 mmHg 81%
01:00 +20°C° 1.2 mm 2 mps 742 mmHg 89%
02:00 +20°C° 0 mm 1 mps 742 mmHg 97%
03:00 +20°C° 0.9 mm 1 mps 742 mmHg 97%
04:00 +20°C° 0.9 mm 1 mps 741 mmHg 97%
05:00 +20°C° 0.9 mm 1 mps 741 mmHg 96%
06:00 +19°C° 0.6 mm 2 mps 741 mmHg 96%
07:00 +19°C° 0.6 mm 2 mps 741 mmHg 96%
08:00 +20°C° 0 mm 2 mps 741 mmHg 95%
09:00 +21°C° 0.6 mm 3 mps 741 mmHg 87%
10:00 +23°C° 0.6 mm 4 mps 741 mmHg 79%
11:00 +25°C° 0.6 mm 4 mps 741 mmHg 71%
12:00 +26°C° 0.1 mm 5 mps 741 mmHg 63%
13:00 +27°C° 0.1 mm 5 mps 741 mmHg 56%
14:00 +28°C° 0.1 mm 5 mps 741 mmHg 49%
15:00 +28°C° 0 mm 5 mps 741 mmHg 51%
16:00 +27°C° 0 mm 5 mps 741 mmHg 53%
17:00 +27°C° 0 mm 5 mps 741 mmHg 54%
18:00 +25°C° 0 mm 4 mps 741 mmHg 59%
19:00 +23°C° 0 mm 4 mps 741 mmHg 64%
20:00 +21°C° 0 mm 3 mps 741 mmHg 68%
21:00 +20°C° 0 mm 3 mps 741 mmHg 72%
22:00 +19°C° 0 mm 3 mps 741 mmHg 75%
23:00 +18°C° 0 mm 2 mps 742 mmHg 78%

Tomorrow, 30 July, Friday

Time Temperature Precipitation Wind Pressure Humidity
00:00 +18°C° 0 mm 3 mps 742 mmHg 76%
01:00 +19°C° 0 mm 3 mps 742 mmHg 73%
02:00 +19°C° 0 mm 3 mps 742 mmHg 70%
03:00 +18°C° 0 mm 3 mps 742 mmHg 74%
04:00 +17°C° 0 mm 3 mps 742 mmHg 77%
05:00 +14°C° 0 mm 3 mps 742 mmHg 81%
06:00 +17°C° 0 mm 3 mps 742 mmHg 76%
07:00 +18°C° 0 mm 4 mps 742 mmHg 71%
08:00 +19°C° 0 mm 4 mps 742 mmHg 65%
09:00 +21°C° 0 mm 5 mps 742 mmHg 60%
10:00 +22°C° 0 mm 5 mps 742 mmHg 54%
11:00 +23°C° 0 mm 6 mps 742 mmHg 48%
12:00 +23°C° 0 mm 6 mps 741 mmHg 48%
13:00 +24°C° 0 mm 6 mps 741 mmHg 48%
14:00 +24°C° 0 mm 6 mps 741 mmHg 47%
15:00 +24°C° 0 mm 6 mps 741 mmHg 48%
16:00 +24°C° 0 mm 6 mps 740 mmHg 49%
17:00 +25°C° 0 mm 5 mps 740 mmHg 49%
18:00 +23°C° 0 mm 4 mps 740 mmHg 55%
19:00 +21°C° 0 mm 4 mps 740 mmHg 60%
20:00 +20°C° 0 mm 3 mps 740 mmHg 65%
21:00 +19°C° 0 mm 3 mps 740 mmHg 66%
22:00 +18°C° 0 mm 3 mps 740 mmHg 68%
23:00 +17°C° 0 mm 3 mps 740 mmHg 70%

Day after tomorrow, 31 July, Saturday

Time Temperature Precipitation Wind Pressure Humidity
00:00 +17°C° 0 mm 3 mps 740 mmHg 71%
01:00 +16°C° 0 mm 3 mps 740 mmHg 73%
02:00 +16°C° 0 mm 3 mps 740 mmHg 75%
03:00 +14°C° 0 mm 3 mps 740 mmHg 76%
04:00 +14°C° 0 mm 3 mps 740 mmHg 76%
05:00 +15°C° 0 mm 2 mps 740 mmHg 77%
06:00 +16°C° 0 mm 3 mps 740 mmHg 72%
07:00 +18°C° 0 mm 3 mps 740 mmHg 67%
08:00 +20°C° 0 mm 3 mps 741 mmHg 63%
09:00 +21°C° 0 mm 3 mps 741 mmHg 58%
10:00 +24°C° 0 mm 3 mps 741 mmHg 53%
11:00 +26°C° 0 mm 3 mps 740 mmHg 48%
12:00 +27°C° 0 mm 4 mps 740 mmHg 46%
13:00 +27°C° 0 mm 4 mps 740 mmHg 43%
14:00 +28°C° 0 mm 4 mps 740 mmHg 41%
15:00 +28°C° 0 mm 3 mps 740 mmHg 44%
16:00 +28°C° 0 mm 3 mps 739 mmHg 46%
17:00 +27°C° 0 mm 2 mps 739 mmHg 49%
18:00 +25°C° 0.2 mm 2 mps 739 mmHg 62%
19:00 +22°C° 0.2 mm 3 mps 739 mmHg 75%
20:00 +19°C° 0.2 mm 3 mps 739 mmHg 87%
21:00 +19°C° 0 mm 3 mps 739 mmHg 89%
22:00 +18°C° 0 mm 3 mps 739 mmHg 90%
23:00 +18°C° 0 mm 3 mps 740 mmHg 91%

1 August, Sunday

Time Temperature Precipitation Wind Pressure Humidity
00:00 +17°C° 0 mm 3 mps 739 mmHg 93%
01:00 +17°C° 0 mm 4 mps 739 mmHg 94%
02:00 +17°C° 0 mm 4 mps 739 mmHg 95%
03:00 +15°C° 0 mm 4 mps 739 mmHg 95%
04:00 +14°C° 0 mm 3 mps 739 mmHg 94%
05:00 +14°C° 0 mm 3 mps 740 mmHg 94%
06:00 +16°C° 0 mm 3 mps 740 mmHg 86%
07:00 +17°C° 0 mm 4 mps 740 mmHg 77%
08:00 +19°C° 0 mm 5 mps 741 mmHg 69%
09:00 +20°C° 0 mm 5 mps 741 mmHg 63%
10:00 +21°C° 0 mm 5 mps 741 mmHg 58%
11:00 +23°C° 0 mm 5 mps 741 mmHg 52%
12:00 +25°C° 0 mm 5 mps 741 mmHg 49%
13:00 +25°C° 0 mm 5 mps 741 mmHg 47%
14:00 +26°C° 0 mm 4 mps 741 mmHg 44%
15:00 +26°C° 0 mm 4 mps 741 mmHg 48%
16:00 +25°C° 0 mm 4 mps 741 mmHg 52%
17:00 +23°C° 0 mm 4 mps 740 mmHg 56%
18:00 +22°C° 0 mm 3 mps 740 mmHg 64%
19:00 +20°C° 0 mm 2 mps 740 mmHg 72%
20:00 +19°C° 0 mm 1 mps 740 mmHg 80%
21:00 +19°C° 0 mm 1 mps 740 mmHg 80%
22:00 +19°C° 0 mm 1 mps 740 mmHg 80%
23:00 +19°C° 0 mm 1 mps 740 mmHg 80%

2 August, Monday

Time Temperature Precipitation Wind Pressure Humidity
00:00 +18°C° 0.7 mm 1 mps 740 mmHg 82%
01:00 +18°C° 0.7 mm 1 mps 739 mmHg 84%
02:00 +18°C° 0.7 mm 1 mps 739 mmHg 86%
03:00 +18°C° 0.9 mm 1 mps 739 mmHg 88%
04:00 +16°C° 0.9 mm 2 mps 739 mmHg 90%
05:00 +16°C° 0.9 mm 2 mps 739 mmHg 91%
06:00 +16°C° 1 mm 2 mps 739 mmHg 92%
07:00 +16°C° 1 mm 3 mps 739 mmHg 93%
08:00 +14°C° 1 mm 3 mps 739 mmHg 94%
09:00 +16°C° 0.9 mm 3 mps 739 mmHg 92%
10:00 +16°C° 0.9 mm 3 mps 739 mmHg 90%
11:00 +16°C° 0.9 mm 3 mps 740 mmHg 89%
12:00 +16°C° 0.5 mm 3 mps 740 mmHg 88%
13:00 +16°C° 0.5 mm 3 mps 740 mmHg 88%
14:00 +15°C° 0.5 mm 4 mps 741 mmHg 88%
15:00 +15°C° 0.3 mm 4 mps 741 mmHg 84%
16:00 +17°C° 0.3 mm 4 mps 741 mmHg 81%
17:00 +18°C° 0.3 mm 4 mps 741 mmHg 77%
18:00 +17°C° 0.2 mm 4 mps 741 mmHg 79%
19:00 +16°C° 0.2 mm 3 mps 741 mmHg 80%
20:00 +16°C° 0.2 mm 3 mps 741 mmHg 81%
21:00 +14°C° 0 mm 3 mps 742 mmHg 84%
22:00 +13°C° 0 mm 3 mps 742 mmHg 87%
23:00 +13°C° 0 mm 3 mps 742 mmHg 90%

3 August, Tuesday

Time Temperature Precipitation Wind Pressure Humidity
00:00 +13°C° 0 mm 3 mps 742 mmHg 90%
01:00 +13°C° 0 mm 3 mps 743 mmHg 89%
02:00 +13°C° 0 mm 3 mps 743 mmHg 89%
03:00 +13°C° 0 mm 3 mps 743 mmHg 90%
04:00 +14°C° 0 mm 2 mps 743 mmHg 91%
05:00 +14°C° 0 mm 2 mps 743 mmHg 92%
06:00 +15°C° 0 mm 2 mps 743 mmHg 87%
07:00 +16°C° 0 mm 3 mps 744 mmHg 82%
08:00 +17°C° 0 mm 3 mps 744 mmHg 77%
09:00 +18°C° 0.1 mm 3 mps 744 mmHg 71%
10:00 +20°C° 0.1 mm 3 mps 744 mmHg 65%
11:00 +21°C° 0.1 mm 3 mps 744 mmHg 58%
12:00 +21°C° 0.1 mm 4 mps 744 mmHg 56%
13:00 +22°C° 0.1 mm 4 mps 744 mmHg 54%
14:00 +22°C° 0.1 mm 5 mps 744 mmHg 52%
15:00 +22°C° 0.2 mm 4 mps 744 mmHg 53%
16:00 +22°C° 0.2 mm 4 mps 744 mmHg 53%
17:00 +21°C° 0.2 mm 3 mps 744 mmHg 54%
18:00 +20°C° 0 mm 3 mps 744 mmHg 59%
19:00 +19°C° 0 mm 2 mps 744 mmHg 63%
20:00 +18°C° 0 mm 1 mps 744 mmHg 68%
21:00 +16°C° 0 mm 1 mps 744 mmHg 69%
22:00 +16°C° 0 mm 1 mps 745 mmHg 70%
23:00 +15°C° 0 mm 1 mps 745 mmHg 71%
Show more